Regional Weather Roundup
Issued by NWS

Home | Current Version | Previous Version | Text Only | Print | Product List | Glossary On
Versions: 1 2 3 4 5 6 7 8 9 10 11 12 13 14 15 16 17 18 19 20 21 22 23 24 25 26 27 28 29 30 31 32 33 34 35 36 37 38 39 40 41 42 43 44 45 46 47 48 49 50
000
ASUS46 KLOX 291412
RWRCA

SOUTHERN CALIFORNIA WEATHER ROUNDUP
NATIONAL WEATHER SERVICE OXNARD CALIFORNIA
700 AM PDT FRI AUG 29 2014

NOTE: "FAIR" INDICATES FEW OR NO CLOUDS BELOW 12,000 FEET WITH NO
SIGNIFICANT WEATHER AND/OR OBSTRUCTIONS TO VISIBILITY.

  -  STATIONS PRECEEDED BY AN ASTERISK (*) ARE NOT NWS OR FAA
     STATIONS AND ARE NOT SUBJECT TO NWS AND FAA QUALITY CONTROL.

CAZ041-042-087-291500-
LA AND ORANGE COUNTY COASTAL AREAS


CITY           SKY/WX    TMP DP  RH WIND       PRES   REMARKS
L.A. DOWNTOWN  CLEAR     67  61  81 CALM      29.88R
L.A. AIRPORT   PTCLDY    68  63  84 CALM      29.89R
LONG BEACH     CLEAR     68  62  81 CALM      29.88R

CITY           SKY/WX    TMP DP  RH WIND       PRES   REMARKS
AVALON           N/A     63 N/A N/A MISG        N/A
FULLERTON      CLEAR     68  59  73 CALM      29.88R
*GETTY CENTER    N/A     66  41  39 NE3         N/A
HAWTHORNE      CLEAR     68  63  84 CALM      29.89R
*LEO CARRILLO    N/A     63  47  56 N6          N/A
*LOS ALAMITOS  CLEAR     64  63  98 SE1       29.89R FOG
*REDONDO BEACH   N/A     66  62  88 CALM      29.88R
SANTA ANA      PTCLDY    71  62  73 CALM      29.89R
STA MONICA APT CLEAR     67  59  75 CALM      29.89R
TORRANCE       CLEAR     66  59  77 S6        29.89
*UCLA            N/A     64  50  59 CALM      29.86S

$$

CAZ547-548-048-291500-
LA COUNTY VALLEYS AND INLAND EMPIRE


CITY           SKY/WX    TMP DP  RH WIND       PRES   REMARKS
BURBANK        CLEAR     67  44  43 CALM      29.89R
VAN NUYS       CLEAR     68  48  48 CALM      29.89R

CITY           SKY/WX    TMP DP  RH WIND       PRES   REMARKS
CORONA AIRPORT SUNNY     56  48  74 CALM      29.90R
CHINO          PTCLDY    61  53  75 CALM      29.91R
*CLAREMONT       N/A     66  47  50 CALM        N/A
MARCH AFB      CLEAR     64  47  53 CALM      29.93R
ONTARIO        PTCLDY    71  49  45 CALM      29.90R
*PASADENA        N/A     70  48  46 E2          N/A
POMONA         CLEAR     66  48  52 CALM      29.93
RIVERSIDE      CLEAR     68  51  54 CALM      29.90R
SAN BERNARDINO CLEAR     66  43  42 CALM      29.91
*SAN RAFAEL HI   N/A     72  46  39 S2          N/A
*SAUGUS          N/A     69  44  41 CALM        N/A
*WHITEMAN AP   NOT AVBL
*WOODLAND HILL   N/A     63  48  59 SE1         N/A

$$

CAZ054-055-291500-
LA AND SAN BERNARDINO COUNTY MOUNTAINS


CITY           SKY/WX    TMP DP  RH WIND       PRES   REMARKS
*ACTON           N/A     57  40  54 CALM        N/A
*BIG BEAR AIRP SUNNY     45  34  65 CALM      30.29R
*BIG PINES       N/A     64  18  17 CALM        N/A
MT WILSON NWS    N/A     70  28  21 MISG        N/A
SANDBERG       CLEAR     71  37  28 NW17      30.10R

$$

CAZ028-029-059-060-099-291500-
ANTELOPE VALLEY AND SURROUNDING AREAS


CITY           SKY/WX    TMP DP  RH WIND       PRES   REMARKS
LANCASTER      CLEAR     59  36  42 CALM      29.96R
PALMDALE       CLEAR     63  41  44 CALM      29.97R

CITY           SKY/WX    TMP DP  RH WIND       PRES   REMARKS
29 PALMS       CLEAR     75  42  30 NW7       29.99R
BARSTOW/DAGGET CLEAR     75  42  30 W12       29.92R
BISHOP         CLEAR     57  30  35 W7        30.07R
CHINA LAKE     CLEAR     64  23  21 S3        29.93R
EDWARDS AFB    PTCLDY    66  41  39 SW9       29.93R
MOJAVE         FAIR      72  32  23 NW3       29.97R
NEEDLES        CLEAR     81  38  21 N7        29.84R
VICTORVILLE    CLEAR     68  45  42 S7        29.99R

$$

CAZ039-040-291500-
VENTURA AND SANTA BARBARA COUNTY COAST


CITY           SKY/WX    TMP DP  RH WIND       PRES   REMARKS
CAMARILLO      CLEAR     63  55  75 E5        29.88R
NWS OXNARD       N/A     60  56  87 CALM      29.88S
OXNARD AIRPORT CLEAR     58  55  90 CALM      29.88R
*POINT MUGU    PTCLDY    61  57  87 NE5       29.89R FOG
SBA APT/GOLETA CLEAR     56  53  90 CALM      29.87R
*SANTA BARBARA   N/A     64  58  82 CALM      29.95R
*VENTURA         N/A     58  53  84 CALM      29.93S

$$

CAZ044-045-291500-
VENTURA COUNTY VALLEYS


CITY           SKY/WX    TMP DP  RH WIND       PRES   REMARKS
*SIMI VALLEY     N/A     61  47  60 CALM      29.84R
*OJAI            N/A     53  49  84 CALM      29.84R
*FILLMORE        N/A     56  51  86 CALM      29.79R

$$

CAZ053-291500-
VENTURA COUNTY MOUNTAINS


CITY           SKY/WX    TMP DP  RH WIND       PRES   REMARKS
*LOCKWOOD VLY    N/A     45  16  31 MISG        N/A
*ROSE VALLEY     N/A     43  30  61 MISG        N/A

$$

CAZ034-035-036-291500-
CENTRAL COAST AND SANTA YNEZ VALLEY


CITY           SKY/WX    TMP DP  RH WIND       PRES   REMARKS
SAN LUIS OBISP CLOUDY    59  57  93 NW10      29.93R
SANTA MARIA    CLOUDY    62  56  80 W3        29.93R

CITY           SKY/WX    TMP DP  RH WIND       PRES   REMARKS
*CAL POLY SLO    N/A     59  59 100 NW5         N/A
*LOMPOC        CLOUDY    61  54  77 NW5       29.94R
*PISMO BEACH     N/A     59  57  92 CALM      29.93S
*SANTA YNEZ    CLOUDY    55  54  94 NE3       29.93S FOG

$$

CAZ037-038-051-291500-
SAN LUIS OBISPO COUNTY INTERIOR AND CUYAMA VALLEY


CITY           SKY/WX    TMP DP  RH WIND       PRES   REMARKS
*CUYAMA          N/A     60  38  42 E3        29.87R
PASO ROBLES    CLOUDY    58  55  90 CALM      29.96R

$$

CAZ032-033-061-291500-
SOUTHERN DESERTS


CITY           SKY/WX    TMP DP  RH WIND       PRES   REMARKS
BLYTHE         CLEAR     78  48  34 CALM      29.79R
IMPERIAL       CLEAR     78  53  41 W7        29.74R
PALM SPRINGS   CLEAR     82  55  39 CALM      29.81R
THERMAL        CLEAR     81  50  33 N5        29.73R

$$

ELSEWHERE ACROSS THE WESTERN UNITED STATES AND MEXICO


CITY           SKY/WX    TMP DP  RH WIND       PRES   REMARKS
DENVER, CO     MOSUNNY   59  46  62 SW12      30.11R
GRAND CANYON,  SUNNY     48  41  76 VRB5      30.27R
HONOLULU, HI   PTCLDY    75  68  78 NW5       29.89S
KAHULUI, MAUI  CLEAR     70  64  83 CALM      29.90R
LAKE TAHOE, CA MOCLDY    47  39  74 S5        30.23R
LAS VEGAS, NV  CLEAR     79  37  22 S7        29.89R
MAMMOTH LAKES, FAIR      41  27  56 NW5       30.28S
MEXICO CITY, M MOSUNNY   57  50  77 E7        30.28R
PHOENIX, AZ    SUNNY     86  48  26 E12       29.82R
PORTLAND, OR   CLOUDY    65  60  84 W6        29.99R
RENO, NV       PTCLDY    62  44  51 SW3       30.12R
SALT LAKE CITY PTSUNNY   64  49  57 S9        30.09R
SAN DIEGO, CA  PTCLDY    71  63  75 CALM      29.89R
SAN FRANCISCO, CLOUDY    61  59  93 W5        29.95R
SAN JOSE, CA   CLOUDY    62  58  86 CALM      29.93F
SEATTLE, WA    CLOUDY    59  55  87 W6        29.99S
TIJUANA, MEX   CLEAR     66  61  82 CALM      29.90

$$

STATION/POSITION TIME  TEMP    WIND        PRES    VSBY  WAVE
                       AIR SEA DIR/SP/G                  HT/PER
                 (UTC) (F)     (DEG/KT/KT) (MB)    (MI)  (FT/S)
POINT ARGUELLO B NOT AVBL
WEST SANTA BARBA 1400   61 62  320/ 19/ 23 1011.4R         5/ 6
POINT CONCEPTION NOT AVBL
EAST SANTA BARBA 1400   65 66  350/  8/ 10 1011.4R
SANTA MONICA BAY 1400   66 71  320/  2/  4 1011.5R         5/10


USA.gov is the U.S. government's official web portal to all federal, state and local government web resources and services.